Flag for Greece Weather past 2 weeks in Nikaia, Greece

Now
64 °F

Broken clouds.


Feels Like: 64 °F
Forecast: 47 / 66 °F
Wind: 9 mph from North

Location: Elefsis Airport

Current Time: Apr 21, 2015 at 3:44:09 PM

Latest Report: Apr 21, 2015 at 2:50 PM


Visibility: N/A

Pressure: 29.98 "Hg

Humidity: 28%

Dew point: 30 °F

Location of NikaiaLocation

Historic Weather in Nikaia — Graph

°F

Nikaia temperature yesterday

Maximum temperature yesterday: 66 °F (at 1:20 PM)
Minimum temperature yesterday: 54 °F (at 6:50 AM)
Average temperature yesterday: 58 °F

Past Weeks' High & Low Weather Summary

 TemperatureHumidityPressure
High77 °F (Apr 17, 1:20 PM)88% (Apr 16, 11:20 PM)30.33 "Hg (Apr 16, 11:20 PM)
Low41 °F (Apr 9, 4:50 AM)20% (Apr 10, 4:20 PM)29.62 "Hg (Apr 6, 4:20 PM)
Average58 °F55%30.07 "Hg
* Reported Apr 6 2:20 PM — Apr 21 2:50 PM, Nikaia, Weather by CustomWeather, © 2015

Note: Actual official high and low records may vary slightly from our data, if they occured in-between our weather recording intervals... More about our weather records

Advertising

Nikaia weather history for previous 24 hours

 ConditionsComfort  
Time TempWeatherWind HumidityBarometerVisibility
2:50 PM
Tue, Apr 21
64 °FBroken clouds.9 mph28%29.98 "HgN/A
1:50 PM64 °FBroken clouds.12 mph34%29.98 "HgN/A
1:20 PM66 °FScattered clouds.16 mph28%29.95 "HgN/A
12:50 PM66 °FScattered clouds.12 mph30%29.95 "HgN/A
12:20 PM68 °FScattered clouds.12 mph30%29.95 "HgN/A
11:50 AM66 °FScattered clouds.14 mph30%29.95 "HgN/A
11:20 AM66 °FPassing clouds.13 mph32%29.95 "HgN/A
10:50 AM64 °FPassing clouds.16 mph37%29.95 "HgN/A
10:20 AM64 °FPassing clouds.8 mph40%29.95 "HgN/A
9:50 AM63 °FPassing clouds.10 mph45%29.95 "HgN/A
9:20 AM63 °FPassing clouds.9 mph49%29.95 "HgN/A
8:50 AM61 °FPassing clouds.7 mph52%29.92 "HgN/A
8:20 AM59 °FPassing clouds.6 mph59%29.92 "HgN/A
7:50 AM55 °FPassing clouds.6 mph67%29.92 "HgN/A
7:20 AM55 °FPassing clouds.9 mph67%29.92 "HgN/A
6:50 AM52 °FPassing clouds.7 mph77%29.92 "HgN/A
6:20 AM52 °FPassing clouds.9 mph77%29.89 "HgN/A
5:50 AM50 °FPassing clouds.5 mph82%29.89 "HgN/A
5:20 AM50 °FPassing clouds.No wind82%29.89 "HgN/A
4:50 AM50 °FPassing clouds.5 mph82%29.89 "HgN/A
4:20 AM50 °FPassing clouds.7 mph88%30.07 "HgN/A
3:50 AM48 °FPassing clouds.6 mph87%29.89 "HgN/A
3:20 AM48 °FPassing clouds.No wind87%29.92 "HgN/A
2:50 AM50 °FPassing clouds.No wind82%29.92 "HgN/A
2:20 AM48 °FPassing clouds.5 mph87%29.92 "HgN/A
1:50 AM50 °FPassing clouds.No wind82%29.92 "HgN/A
1:20 AM50 °FPassing clouds.5 mph82%29.92 "HgN/A
12:50 AM50 °FPassing clouds.No wind82%29.92 "HgN/A
12:20 AM50 °FPassing clouds.No wind82%29.92 "HgN/A
11:20 PM
Mon, Apr 20
54 °FPassing clouds.No wind72%29.92 "HgN/A
10:50 PM55 °FPassing clouds.No wind72%29.92 "HgN/A
10:20 PM57 °FPassing clouds.No wind67%29.92 "HgN/A
9:50 PM57 °FPassing clouds.No wind67%29.92 "HgN/A
9:20 PM57 °FPartly cloudy.No wind67%29.92 "HgN/A
8:50 PM59 °FBroken clouds.No wind63%29.92 "HgN/A
8:20 PM59 °FPartly sunny.No wind68%29.92 "HgN/A
7:50 PM59 °FPartly sunny.5 mph68%29.92 "HgN/A
7:20 PM59 °FPartly sunny.5 mph63%29.92 "HgN/A
6:50 PM59 °FPartly sunny.9 mph63%29.92 "HgN/A
6:20 PM61 °FBroken clouds.9 mph59%29.92 "HgN/A
5:50 PM61 °FBroken clouds.9 mph59%29.92 "HgN/A
5:20 PM61 °FScattered clouds.12 mph59%29.92 "HgN/A
4:50 PM63 °FBroken clouds.14 mph59%29.92 "HgN/A
4:20 PM63 °FBroken clouds.10 mph59%29.92 "HgN/A
3:50 PM64 °FBroken clouds.9 mph56%29.92 "HgN/A
3:20 PM66 °FBroken clouds.7 mph49%29.92 "HgN/A
Weather by CustomWeather, © 2015

See weather overviewHow to use our weather pages